DW7857 Weather Reports


Display with metric or nautical units.
time (UTC)temp
F
wind
direction
speed
MPH
gust
MPH
rain 1hr
in
rain 24hr
in
rain mn
in
humidity
%
barometer
mb
20210623145004 71 357 5.0 8.0 0.00 0.00 0.00 43 1028.2
20210623144504 71 346 4.0 8.0 0.00 0.00 0.00 43 1028.1
20210623144005 71 345 4.0 8.0 0.00 0.00 0.00 43 1028.1
20210623143505 71 359 4.0 9.0 0.00 0.00 0.00 44 1028.1
20210623143004 71 28 5.0 11.0 0.00 0.00 0.00 45 1028.2
20210623142504 70 34 6.0 11.0 0.00 0.00 0.00 45 1028.1
20210623142005 70 45 4.0 8.0 0.00 0.00 0.00 44 1028.3
20210623141504 71 44 4.0 7.0 0.00 0.00 0.00 45 1028.2
20210623141005 70 11 4.0 8.0 0.00 0.00 0.00 46 1028.3
20210623140504 69 22 5.0 8.0 0.00 0.00 0.00 44 1028.5
20210623140004 70 46 4.0 8.0 0.00 0.00 0.00 44 1028.2
20210623135505 70 42 4.0 8.0 0.00 0.00 0.00 42 1028.2
20210623135004 70 18 5.0 11.0 0.00 0.00 0.00 44 1028.4
20210623134505 69 19 6.0 11.0 0.00 0.00 0.00 43 1028.3
20210623134004 70 14 5.0 9.0 0.00 0.00 0.00 43 1028.2
20210623133504 70 18 4.0 9.0 0.00 0.00 0.00 44 1028.3
20210623133005 69 23 5.0 9.0 0.00 0.00 0.00 43 1028.3
20210623132504 70 33 5.0 9.0 0.00 0.00 0.00 43 1028.4
20210623132005 69 37 4.0 9.0 0.00 0.00 0.00 43 1028.2
20210623131504 69 22 4.0 8.0 0.00 0.00 0.00 45 1028.5
20210623131005 69 45 4.0 12.0 0.00 0.00 0.00 42 1028.3
20210623130505 70 33 4.0 12.0 0.00 0.00 0.00 44 1028.4
20210623130004 71 327 3.0 8.0 0.00 0.00 0.00 42 1028.6
20210623125505 70 14 4.0 7.0 0.00 0.00 0.00 42 1028.5
20210623125005 70 43 4.0 7.0 0.00 0.00 0.00 44 1028.5
20210623124504 70 52 4.0 9.0 0.00 0.00 0.00 45 1028.5
20210623124005 69 33 4.0 9.0 0.00 0.00 0.00 44 1028.7
20210623123504 70 15 4.0 9.0 0.00 0.00 0.00 43 1028.5
20210623123005 69 357 4.0 7.0 0.00 0.00 0.00 43 1028.6
20210623122504 69 322 4.0 9.0 0.00 0.00 0.00 46 1028.6
20210623122004 67 325 6.0 9.0 0.00 0.00 0.00 43 1028.8
20210623121504 68 2 5.0 8.0 0.00 0.00 0.00 42 1028.6
20210623121005 69 6 4.0 8.0 0.00 0.00 0.00 44 1028.8
20210623120504 70 313 3.0 8.0 0.00 0.00 0.00 42 1028.6
20210623120005 70 359 3.0 7.0 0.00 0.00 0.00 43 1028.7
20210623115505 70 347 4.0 8.0 0.00 0.00 0.00 42 1028.6
20210623115004 69 339 4.0 9.0 0.00 0.00 0.00 42 1028.9
20210623114505 69 347 3.0 9.0 0.00 0.00 0.00 41 1028.7
20210623114004 70 32 3.0 7.0 0.00 0.00 0.00 41 1028.7
20210623113504 69 19 4.0 8.0 0.00 0.00 0.00 41 1028.7
20210623113005 69 331 5.0 8.0 0.00 0.00 0.00 41 1028.8
20210623112505 69 322 4.0 8.0 0.00 0.00 0.00 41 1028.7
20210623112005 70 344 3.0 6.0 0.00 0.00 0.00 42 1028.7
20210623111504 70 16 4.0 8.0 0.00 0.00 0.00 43 1028.9
20210623111005 69 41 4.0 8.0 0.00 0.00 0.00 44 1028.8
20210623110505 69 33 3.0 8.0 0.00 0.00 0.00 45 1028.8
20210623110005 68 233 3.0 6.0 0.00 0.00 0.00 45 1028.7
20210623105505 68 285 4.0 6.0 0.00 0.00 0.00 44 1028.9
20210623105005 68 28 5.0 9.0 0.00 0.00 0.00 45 1028.9
20210623104504 67 72 5.0 9.0 0.00 0.00 0.00 45 1029.0
20210623104005 68 65 4.0 9.0 0.00 0.00 0.00 44 1028.9
20210623103504 68 43 4.0 8.0 0.00 0.00 0.00 47 1029.0
20210623103005 67 28 4.0 8.0 0.00 0.00 0.00 47 1028.8
20210623102504 67 22 4.0 8.0 0.00 0.00 0.00 46 1028.9
20210623102004 67 18 4.0 10.0 0.00 0.00 0.00 50 1028.9
20210623101504 66 29 5.0 10.0 0.00 0.00 0.00 48 1028.9
20210623101005 67 29 4.0 9.0 0.00 0.00 0.00 49 1028.8
20210623100505 67 26 4.0 8.0 0.00 0.00 0.00 49 1028.7
20210623100005 65 48 5.0 11.0 0.00 0.00 0.00 49 1029.0
20210623095504 66 38 5.0 11.0 0.00 0.00 0.00 46 1029.0
20210623095005 66 33 4.0 8.0 0.00 0.00 0.00 51 1028.9
20210623094504 66 66 4.0 8.0 0.00 0.00 0.00 52 1029.0
20210623094005 66 52 4.0 8.0 0.00 0.00 0.00 51 1028.8
20210623093504 65 32 5.0 8.0 0.00 0.00 0.00 51 1029.1
20210623093005 65 20 5.0 8.0 0.00 0.00 0.00 51 1029.1
20210623092504 65 17 5.0 8.0 0.00 0.00 0.00 54 1029.0
20210623092005 65 76 5.0 8.0 0.00 0.00 0.00 55 1029.1
20210623091504 65 83 4.0 8.0 0.00 0.00 0.00 55 1029.1
20210623091005 65 58 4.0 8.0 0.00 0.00 0.00 60 1029.0
20210623090505 64 60 5.0 8.0 0.00 0.00 0.00 60 1028.8
20210623090004 64 11 5.0 8.0 0.00 0.00 0.00 57 1029.2
20210623085504 64 355 4.0 6.0 0.00 0.00 0.00 60 1029.2
20210623085005 64 51 4.0 7.0 0.00 0.00 0.00 60 1029.1
20210623084504 63 98 4.0 7.0 0.00 0.00 0.00 62 1029.2
20210623084004 63 306 5.0 9.0 0.00 0.00 0.00 62 1029.3
20210623083505 63 311 5.0 9.0 0.00 0.00 0.00 62 1029.3
20210623083004 63 344 5.0 8.0 0.00 0.00 0.00 63 1029.2
20210623082505 62 34 5.0 9.0 0.00 0.00 0.00 64 1029.1
20210623082004 62 38 5.0 9.0 0.00 0.00 0.00 64 1029.1
20210623081504 62 41 4.0 8.0 0.00 0.00 0.00 64 1029.1
20210623081005 63 3 3.0 8.0 0.00 0.00 0.00 65 1029.3
20210623080505 62 313 4.0 8.0 0.00 0.00 0.00 65 1029.3
20210623080005 61 342 5.0 8.0 0.00 0.00 0.00 65 1029.2
20210623075504 61 27 4.0 7.0 0.00 0.00 0.00 66 1029.3
20210623075005 61 31 4.0 7.0 0.00 0.00 0.00 67 1029.4
20210623074505 61 19 4.0 7.0 0.00 0.00 0.00 67 1029.3
20210623074005 60 36 5.0 8.0 0.00 0.00 0.00 68 1029.2
20210623073504 60 66 4.0 8.0 0.00 0.00 0.00 67 1029.4
20210623073005 60 77 4.0 8.0 0.00 0.00 0.00 67 1029.2
20210623072504 60 90 4.0 8.0 0.00 0.00 0.00 67 1029.3
20210623072005 60 65 4.0 7.0 0.00 0.00 0.00 69 1029.6
20210623071504 59 49 4.0 7.0 0.00 0.00 0.00 67 1029.3
20210623071005 59 49 4.0 7.0 0.00 0.00 0.00 68 1029.3
20210623070504 59 37 4.0 7.0 0.00 0.00 0.00 68 1029.3
20210623070005 58 29 4.0 7.0 0.00 0.00 0.00 67 1029.1
20210623065504 59 55 3.0 7.0 0.00 0.00 0.00 70 1029.3
20210623065005 59 44 3.0 5.0 0.00 0.00 0.00 71 1029.0
20210623064505 58 33 3.0 8.0 0.00 0.00 0.00 71 1029.0
20210623064004 57 37 4.0 8.0 0.00 0.00 0.00 72 1029.1
20210623063504 57 23 4.0 7.0 0.00 0.00 0.00 75 1028.9
20210623063004 56 9 3.0 6.0 0.00 0.00 0.00 80 1028.7
20210623062505 55 14 2.0 5.0 0.00 0.00 0.00 83 1029.1
20210623062005 54 31 2.0 4.0 0.00 0.00 0.00 90 1029.2
20210623061504 54 36 2.0 4.0 0.00 0.00 0.00 92 1028.9
20210623061005 54 41 2.0 4.0 0.00 0.00 0.00 94 1029.0
20210623060505 53 58 2.0 4.0 0.00 0.00 0.00 96 1028.9
20210623060005 53 84 2.0 3.0 0.00 0.00 0.00 100 1029.0
20210623055504 52 69 2.0 3.0 0.00 0.00 0.00 100 1028.8
20210623055005 52 52 1.0 3.0 0.00 0.00 0.00 100 1029.0
20210623054504 52 63 1.0 2.0 0.00 0.00 0.00 100 1028.9
20210623054005 51 46 0.0 2.0 0.00 0.00 0.00 100 1028.9
20210623053504 50 50 1.0 2.0 0.00 0.00 0.00 97 1028.9
20210623053004 49 52 1.0 2.0 0.00 0.00 0.00 97 1028.9
20210623052505 49 53 0.0 2.0 0.00 0.00 0.00 97 1028.7
20210623052005 48 0 0.0 1.0 0.00 0.00 0.00 96 1028.8
20210623051504 48 0 0.0 1.0 0.00 0.00 0.00 96 1028.8
20210623051005 47 0 0.0 0.0 0.00 0.00 0.00 96 1028.6
20210623050505 47 0 0.0 1.0 0.00 0.00 0.00 95 1029.0
20210623050004 46 0 0.0 1.0 0.00 0.00 0.00 95 1028.8
20210623045504 46 0 0.0 1.0 0.00 0.00 0.00 95 1028.8
20210623045005 45 90 0.0 2.0 0.00 0.00 0.00 99 1028.8
20210623044504 45 278 0.0 2.0 0.00 0.00 0.00 99 1028.9
20210623044005 45 285 0.0 2.0 0.00 0.00 0.00 99 1028.7
20210623043505 45 0 0.0 0.0 0.00 0.00 0.00 99 1028.8
20210623043005 45 0 0.0 1.0 0.00 0.00 0.00 99 1028.6
20210623042505 44 0 0.0 1.0 0.00 0.00 0.00 100 1028.8
20210623042005 44 0 0.0 0.0 0.00 0.00 0.00 100 1028.6
20210623041505 44 0 0.0 1.0 0.00 0.00 0.00 100 1028.5
20210623041005 44 0 0.0 1.0 0.00 0.00 0.00 100 1028.7
20210623040504 44 0 0.0 1.0 0.00 0.00 0.00 100 1028.4
20210623040004 44 0 0.0 1.0 0.00 0.00 0.00 100 1028.5
20210623035504 44 0 0.0 1.0 0.00 0.00 0.00 100 1028.6
20210623035004 44 0 0.0 1.0 0.00 0.00 0.00 100 1028.3
20210623034505 45 0 0.0 1.0 0.00 0.00 0.00 100 1028.5
20210623034005 45 181 0.0 2.0 0.00 0.00 0.00 100 1028.5
20210623033504 45 181 0.0 2.0 0.00 0.00 0.00 100 1028.6
20210623033005 45 181 0.0 1.0 0.00 0.00 0.00 100 1028.4
20210623032504 45 181 0.0 2.0 0.00 0.00 0.00 97 1028.6
20210623032005 45 174 0.0 2.0 0.00 0.00 0.00 97 1028.5
20210623031504 45 159 0.0 2.0 0.00 0.01 0.00 97 1028.5
20210623031005 45 0 0.0 1.0 0.00 0.01 0.00 97 1028.3
20210623030505 45 0 0.0 1.0 0.00 0.01 0.00 97 1028.6
20210623030004 45 0 0.0 1.0 0.00 0.01 0.00 97 1028.4
20210623025505 45 225 0.0 2.0 0.00 0.01 0.00 96 1028.6
20210623025004 45 293 0.0 2.0 0.00 0.01 0.00 96 1028.2
20210623024505 45 1 0.0 2.0 0.00 0.01 0.00 96 1028.6
20210623024005 45 0 0.0 1.0 0.00 0.01 0.00 96 1028.3
20210623023505 45 0 0.0 1.0 0.00 0.01 0.00 96 1028.5
20210623023004 45 0 0.0 1.0 0.00 0.01 0.00 96 1028.2
20210623022505 45 0 0.0 1.0 0.00 0.01 0.00 96 1028.4
20210623022004 45 181 0.0 2.0 0.00 0.01 0.00 95 1028.4
20210623021505 45 181 0.0 2.0 0.00 0.01 0.00 95 1028.4
20210623021005 45 0 0.0 1.0 0.00 0.01 0.00 95 1028.4
20210623020505 46 0 0.0 1.0 0.00 0.01 0.00 91 1028.4
20210623020004 46 0 0.0 1.0 0.00 0.01 0.00 91 1028.4
20210623015505 46 0 0.0 1.0 0.00 0.01 0.00 91 1028.4
20210623015004 46 175 0.0 2.0 0.00 0.01 0.00 91 1028.4
20210623014504 46 184 0.0 2.0 0.00 0.01 0.00 91 1028.3
20210623014005 46 0 0.0 1.0 0.00 0.01 0.00 91 1028.4
20210623013505 46 127 0.0 1.0 0.00 0.01 0.00 91 1028.2
20210623013004 46 140 0.0 2.0 0.00 0.01 0.00 91 1028.3
20210623012505 46 167 0.0 2.0 0.00 0.01 0.00 91 1028.4
20210623012004 46 177 0.0 2.0 0.00 0.01 0.00 91 1028.4
20210623011504 46 159 0.0 2.0 0.00 0.01 0.00 90 1028.4
20210623011004 46 0 0.0 1.0 0.00 0.01 0.00 90 1028.5
20210623010504 47 197 0.0 2.0 0.00 0.01 0.00 90 1028.4
20210623010004 47 191 0.0 2.0 0.00 0.01 0.00 90 1028.5
20210623005505 47 168 0.0 2.0 0.00 0.01 0.00 90 1028.5
20210623005004 47 162 0.0 2.0 0.00 0.01 0.00 90 1028.6
20210623004505 47 174 0.0 2.0 0.00 0.01 0.00 90 1028.4
20210623004005 47 195 0.0 2.0 0.00 0.01 0.00 89 1028.5
20210623003504 47 0 0.0 0.0 0.00 0.01 0.00 89 1028.4
20210623003005 47 0 0.0 0.0 0.00 0.01 0.00 88 1028.4
20210623002504 47 0 0.0 0.0 0.00 0.01 0.00 88 1028.7
20210623002005 47 0 0.0 0.0 0.00 0.01 0.00 88 1028.7
20210623001504 47 0 0.0 1.0 0.00 0.01 0.00 87 1028.5
20210623001005 47 0 0.0 1.0 0.00 0.01 0.00 87 1028.7
20210623000505 47 0 0.0 1.0 0.00 0.01 0.00 87 1028.7
20210623000007 47 0 0.0 1.0 0.00 0.01 0.00 86 1028.4
20210622235505 47 0 0.0 0.0 0.00 0.01 0.01 86 1028.6
20210622235004 48 0 0.0 0.0 0.00 0.01 0.01 86 1028.4
20210622234505 48 0 0.0 0.0 0.00 0.01 0.01 86 1028.8
20210622234005 48 0 0.0 0.0 0.00 0.01 0.01 86 1028.9
20210622233504 48 0 0.0 0.0 0.00 0.01 0.01 85 1028.7
20210622233004 48 0 0.0 0.0 0.00 0.01 0.01 85 1028.6
20210622232504 48 0 0.0 0.0 0.00 0.01 0.01 84 1028.7
20210622232005 48 0 0.0 0.0 0.00 0.01 0.01 84 1028.7
20210622231504 49 0 0.0 0.0 0.00 0.01 0.01 84 1028.7
20210622231005 49 0 0.0 0.0 0.00 0.01 0.01 84 1028.7
20210622230505 49 0 0.0 0.0 0.00 0.01 0.01 84 1028.8
20210622230005 49 0 0.0 0.0 0.00 0.01 0.01 83 1028.7
20210622225504 49 0 0.0 0.0 0.00 0.01 0.01 83 1028.5
20210622225005 49 0 0.0 0.0 0.00 0.01 0.01 82 1028.7
20210622224504 49 0 0.0 0.0 0.00 0.01 0.01 82 1028.6
20210622224005 50 0 0.0 0.0 0.00 0.01 0.01 82 1028.4
20210622223504 50 0 0.0 0.0 0.00 0.01 0.01 82 1028.7
20210622223005 50 0 0.0 0.0 0.00 0.01 0.01 81 1028.6
20210622222504 50 0 0.0 0.0 0.00 0.01 0.01 81 1028.4
20210622222005 51 0 0.0 0.0 0.00 0.01 0.01 81 1028.4
20210622221504 51 0 0.0 0.0 0.00 0.01 0.01 81 1028.6
20210622221005 51 0 0.0 0.0 0.00 0.01 0.01 80 1028.5
20210622220504 51 0 0.0 0.0 0.00 0.01 0.01 79 1028.4
20210622220005 51 0 0.0 0.0 0.00 0.01 0.01 78 1028.4
20210622215504 52 0 0.0 0.0 0.00 0.01 0.01 77 1028.4
20210622215004 52 0 0.0 0.0 0.00 0.01 0.01 77 1028.6
20210622214504 52 0 0.0 0.0 0.00 0.01 0.01 76 1028.4
20210622214005 53 0 0.0 0.0 0.00 0.01 0.01 75 1028.5
20210622213504 53 0 0.0 0.0 0.00 0.01 0.01 74 1028.3
20210622213005 53 0 0.0 0.0 0.00 0.01 0.01 74 1028.2
20210622212504 53 0 0.0 0.0 0.00 0.01 0.01 73 1028.6
20210622212005 53 0 0.0 0.0 0.00 0.01 0.01 72 1028.3
20210622211505 54 0 0.0 0.0 0.00 0.01 0.01 72 1028.4
20210622211005 54 0 0.0 0.0 0.00 0.01 0.01 72 1028.4
20210622210505 54 0 0.0 0.0 0.00 0.01 0.01 72 1028.3
20210622210005 54 327 0.0 1.0 0.00 0.01 0.01 68 1028.4
20210622205504 55 327 0.0 1.0 0.00 0.01 0.01 67 1028.5
20210622205004 55 0 0.0 1.0 0.00 0.01 0.01 66 1028.2
20210622204504 56 0 0.0 1.0 0.00 0.01 0.01 66 1028.3
20210622204005 56 0 0.0 1.0 0.00 0.01 0.01 65 1028.4
20210622203505 57 0 0.0 1.0 0.00 0.01 0.01 64 1028.0
20210622203004 57 0 0.0 1.0 0.00 0.01 0.01 63 1028.1
20210622202505 58 39 1.0 2.0 0.00 0.01 0.01 62 1028.0
20210622202004 58 33 1.0 2.0 0.00 0.01 0.01 61 1027.8
20210622201505 58 39 1.0 4.0 0.00 0.01 0.01 61 1028.2
20210622201005 59 43 2.0 4.0 0.00 0.01 0.01 60 1027.7
20210622200505 59 49 2.0 4.0 0.00 0.01 0.01 60 1028.0
20210622200005 60 49 2.0 3.0 0.00 0.01 0.01 60 1028.0
20210622195504 60 49 2.0 4.0 0.00 0.01 0.01 60 1027.9
20210622195005 60 48 2.0 4.0 0.00 0.01 0.01 60 1027.6
20210622194504 60 44 1.0 4.0 0.00 0.01 0.01 60 1027.6
20210622194005 60 54 2.0 4.0 0.00 0.01 0.01 60 1027.7
20210622193504 60 54 2.0 4.0 0.00 0.01 0.01 60 1027.6
20210622193005 60 67 3.0 4.0 0.00 0.01 0.01 58 1027.6
20210622192504 60 32 3.0 6.0 0.00 0.01 0.01 57 1027.7
20210622192005 60 10 4.0 8.0 0.00 0.01 0.01 56 1027.6
20210622191504 60 17 4.0 8.0 0.00 0.01 0.01 55 1027.7
20210622191005 61 359 4.0 7.0 0.00 0.01 0.01 54 1027.4
20210622190505 61 40 4.0 8.0 0.00 0.01 0.01 53 1027.3
20210622190005 62 50 5.0 8.0 0.00 0.01 0.01 51 1027.3
20210622185504 62 35 5.0 10.0 0.00 0.01 0.01 52 1027.5
20210622185005 63 35 6.0 10.0 0.00 0.01 0.01 51 1027.3
20210622184504 63 33 5.0 8.0 0.00 0.01 0.01 51 1027.3
20210622184005 63 22 4.0 8.0 0.00 0.01 0.01 51 1027.2
20210622183504 63 16 4.0 8.0 0.00 0.01 0.01 51 1027.1
20210622183005 63 46 4.0 7.0 0.00 0.01 0.01 53 1027.1
20210622182504 62 59 5.0 8.0 0.00 0.01 0.01 53 1026.9
20210622182005 62 49 4.0 8.0 0.00 0.01 0.01 53 1027.0
20210622181504 62 48 4.0 8.0 0.00 0.01 0.01 55 1027.1
20210622181005 62 51 4.0 7.0 0.00 0.01 0.01 57 1027.0
20210622180505 61 52 3.0 7.0 0.00 0.01 0.01 57 1027.0
20210622180005 61 53 3.0 7.0 0.00 0.01 0.01 59 1027.1
20210622175504 61 55 4.0 7.0 0.00 0.01 0.01 58 1027.1
20210622175005 61 68 4.0 7.0 0.00 0.01 0.01 58 1026.9
20210622174504 61 65 5.0 11.0 0.00 0.01 0.01 57 1027.0
20210622174005 61 30 6.0 11.0 0.00 0.01 0.01 56 1027.1
20210622173504 61 332 7.0 12.0 0.00 0.01 0.01 55 1027.0
20210622173004 62 305 6.0 12.0 0.00 0.01 0.01 55 1026.9
20210622172505 62 26 4.0 8.0 0.00 0.01 0.01 54 1026.7
20210622172004 63 32 5.0 8.0 0.00 0.01 0.01 54 1026.8
20210622171504 62 24 4.0 11.0 0.00 0.01 0.01 54 1027.0
20210622171004 62 33 4.0 11.0 0.00 0.01 0.01 53 1026.6
20210622170505 62 19 5.0 11.0 0.00 0.01 0.01 52 1026.8
20210622170004 62 8 5.0 9.0 0.00 0.01 0.01 53 1026.8
20210622165504 62 20 5.0 10.0 0.00 0.01 0.01 54 1026.8
20210622165005 62 55 6.0 10.0 0.00 0.01 0.01 53 1027.0
20210622164504 62 62 7.0 13.0 0.00 0.01 0.01 52 1026.8
20210622164005 62 31 7.0 13.0 0.00 0.01 0.01 51 1026.6
20210622163504 62 12 7.0 12.0 0.00 0.01 0.01 50 1026.8
20210622163005 64 34 6.0 12.0 0.00 0.01 0.01 46 1026.8
20210622162504 63 53 6.0 11.0 0.00 0.01 0.01 51 1026.5
20210622162005 62 47 6.0 11.0 0.00 0.01 0.01 50 1026.6
20210622161504 62 48 6.0 11.0 0.00 0.01 0.01 50 1026.4
20210622161005 62 48 6.0 13.0 0.00 0.01 0.01 51 1026.3
20210622160504 62 21 7.0 13.0 0.00 0.01 0.01 50 1026.4
20210622160005 62 48 6.0 11.0 0.00 0.01 0.01 51 1026.5
20210622155504 62 75 6.0 11.0 0.00 0.01 0.01 52 1026.3
20210622155005 62 69 7.0 13.0 0.00 0.01 0.01 52 1026.3
20210622154504 62 53 7.0 13.0 0.00 0.01 0.01 51 1026.5
20210622154005 62 36 7.0 11.0 0.00 0.01 0.01 52 1026.4
20210622153504 62 22 7.0 11.0 0.00 0.01 0.01 52 1026.5
20210622153005 62 26 6.0 11.0 0.00 0.01 0.01 51 1026.3
20210622152504 63 49 6.0 13.0 0.00 0.01 0.01 51 1026.3
20210622151504 63 41 6.0 10.0 0.00 0.01 0.01 51 1026.4
20210622151005 62 42 7.0 10.0 0.00 0.01 0.01 51 1026.3
20210622150505 62 41 7.0 11.0 0.00 0.01 0.01 51 1026.4
20210622150005 63 20 6.0 11.0 0.00 0.01 0.01 50 1026.2
20210622145505 64 14 6.0 15.0 0.00 0.01 0.01 49 1026.5